TimeEST,TemperatureF,Dew PointF,Humidity,Sea Level PressureIn,VisibilityMPH,Wind Direction,Wind SpeedMPH,Gust SpeedMPH,PrecipitationIn,Events,Conditions,WindDirDegrees,DateUTC
12:51 AM,39.9,24.1,53,30.41,10.0,North,4.6,-,N/A,,Mostly Cloudy,10,2012-12-13 05:51:00
1:51 AM,39.9,25.0,55,30.41,10.0,NNE,3.5,-,N/A,,Mostly Cloudy,30,2012-12-13 06:51:00
2:51 AM,39.0,25.0,57,30.42,10.0,NNE,3.5,-,N/A,,Mostly Cloudy,20,2012-12-13 07:51:00
3:51 AM,39.0,25.0,57,30.43,10.0,North,4.6,-,N/A,,Mostly Cloudy,350,2012-12-13 08:51:00
4:51 AM,39.0,24.1,55,30.42,10.0,NNE,3.5,-,N/A,,Mostly Cloudy,30,2012-12-13 09:51:00
5:51 AM,39.0,25.0,57,30.43,10.0,North,4.6,-,N/A,,Mostly Cloudy,10,2012-12-13 10:51:00
6:51 AM,39.0,25.0,57,30.45,10.0,Calm,Calm,-,N/A,,Mostly Cloudy,0,2012-12-13 11:51:00
7:51 AM,39.0,25.0,57,30.46,10.0,NNE,4.6,-,N/A,,Mostly Cloudy,20,2012-12-13 12:51:00
8:51 AM,39.9,25.0,55,30.45,10.0,NE,4.6,-,N/A,,Partly Cloudy,40,2012-12-13 13:51:00
9:51 AM,43.0,23.0,45,30.45,10.0,NNE,5.8,-,N/A,,Partly Cloudy,30,2012-12-13 14:51:00
10:51 AM,43.0,25.0,49,30.46,10.0,ENE,10.4,-,N/A,,Partly Cloudy,60,2012-12-13 15:51:00
11:51 AM,44.1,25.0,47,30.43,10.0,ENE,6.9,-,N/A,,Partly Cloudy,60,2012-12-13 16:51:00
12:51 PM,44.1,26.1,49,30.40,10.0,ENE,9.2,-,N/A,,Partly Cloudy,60,2012-12-13 17:51:00
1:51 PM,46.0,23.0,40,30.39,10.0,NE,6.9,-,N/A,,Partly Cloudy,50,2012-12-13 18:51:00
2:51 PM,45.0,23.0,42,30.38,10.0,East,4.6,-,N/A,,Partly Cloudy,80,2012-12-13 19:51:00
3:51 PM,45.0,23.0,42,30.37,10.0,Calm,Calm,-,N/A,,Clear,0,2012-12-13 20:51:00
4:51 PM,44.1,23.0,43,30.37,10.0,NE,5.8,-,N/A,,Clear,50,2012-12-13 21:51:00
6:51 PM,42.8,23.0,46,30.37,10.0,East,5.8,-,N/A,,Partly Cloudy,80,2012-12-13 23:51:00
7:51 PM,44.1,24.1,45,30.36,10.0,Variable,5.8,-,N/A,,Partly Cloudy,0,2012-12-14 00:51:00
8:51 PM,43.0,23.0,45,30.34,10.0,East,6.9,-,N/A,,Partly Cloudy,100,2012-12-14 01:51:00
9:51 PM,39.9,28.9,65,30.35,10.0,ENE,4.6,-,N/A,,Scattered Clouds,70,2012-12-14 02:51:00
10:51 PM,41.0,24.8,53,30.33,10.0,Calm,Calm,-,N/A,,Scattered Clouds,0,2012-12-14 03:51:00
11:51 PM,39.9,25.0,55,30.32,10.0,SSW,4.6,-,N/A,,Partly Cloudy,200,2012-12-14 04:51:00